ONEWEB-0006, 44061

Orbit data source: Space-Track

ONEWEB-0006, 44061 is a payload satellite owned by One Web (UK) in LEO that was launched on Wed, 27 Feb 2019 UTC via a SOYUZ-ST-B launch vehicle from the French Guiana (FRGUI). Payload-class satellites include a variety of spacecraft equipped with specific instruments for various scientific and technological missions. These include communications satellites like Starlink; space stations such as the ISS; scientific satellites like the Hubble; Earth observation satellites from companies like Planet Labs, Umbra, and HawkEye 360; GPS; miniature CubeSats for education and research; and military/defense satellites.

Loading next visibility...
Identifier
44061, 2019-010E
Orbit
LEO
Last TLE update
17 hours ago
Origin
Manufacturer
Airbus/Toulouse
Mission
Operational Commercial Communications
Bus & Motor
ARROW, Unknown motor
Mass
148 kg wet, ~140 kg dry
Launch date (UTC)
2019-02-27 (6 years ago)
Launch vehicle
SOYUZ-ST-B
Launch site
French Guiana (FRGUI)
Object type
Payload
Rocket body
Debris
Shape & HBR
Trap Box + 2 Pan, 5 m
Radar Cross Section
2.957 m², Large (>1 m²)

Expand to show TLE details & history

TLE from 17 hours ago
0 ONEWEB-0006
1 44061U 19010E   25172.90732654  .00000024  00000-0  30132-4 0  9998
2 44061  87.9049 330.9955 0002030 100.1343 260.0016 13.15548969304053
Epoch: 2025-06-21T21:46Z
TLE epoch observation values (Epoch: 2025-06-21T21:46:33.013Z)
Latitude
-0.00004°
Longitude
94.01837°
Altitude
1,204.932 km
Speed
7.251 km/s
True Right ascension
22h 03m 58s
True Declination
0° 00' 00"
Sunlit
Object was in daylight at epoch
Visualization orbit readout
Latitude
20.73647°
Longitude
-86.91394°
Altitude
1,203.588 km
Speed
7.254 km/s
Apparent Right ascension
11h 37m 41s
Apparent Declination
-7° 40' 36"
Sunlit
Object is in daylight
Visualization observer readout
Local Sidereal Time
02:04:22
Azimuth
55.446° ENE
Elevation
-44.058°
Doppler factor
1
Orbital elements
Apogee altitude
1,200.419 km
Perigee altitude
1,197.343 km
Semi-major axis
7,577.018 km
Eccentricity
0.0002
Inclination
87.9049°
RAAN
330.9955°
Arg. of periapsis
100.1343°
True anomaly
Unknown
Mean anomaly
260.0016°
Eccentric anomaly
Unknown
Mean motion
3.29076 °/min
Orbital period
109.4 mins
BSTAR
0.000030132
Loading maneuver chart data...
Loading SW <> Apogee altitude chart data...
Loading historical data...
Loading historical data...
Loading historical data...
Loading historical data...
Loading historical data...
Loading historical data...
Loading historical data...
Other satellites on launch #10 in the year 2019 (2019-02-27 UTC)

ONEWEB-0006 Visibility forecast

Observer location: undefined°, undefined°

Span
Click to sort rows by Start time (UTC) header in descending order
Start Az.
Max El. time (UTC)
Max El. Az.
Max El.
End time (UTC)
End Az.
13 mins2025-06-22 22:06:39.303Z12.57° NNE2025-06-22 22:12:39.303Z80.525° E37.263°2025-06-22 22:19:39.303Z158.106° S
10 mins2025-06-22 23:57:39.303Z328.762° NNW2025-06-23 00:01:39.303Z286.504° WNW25.8°2025-06-23 00:07:39.303Z227.524° WSW
12 mins2025-06-23 10:23:39.303Z154.528° SSE2025-06-23 10:29:39.303Z71.82° E38.564°2025-06-23 10:35:39.303Z11.322° NNE
10 mins2025-06-23 12:14:39.303Z235.599° WSW2025-06-23 12:18:39.303Z276.317° WNW24.171°2025-06-23 12:24:39.303Z335.448° NNW
|